CO-65
1 32785U 08021C 21280.44027220 .00000632 00000-0 73068-4 0 9999
2 32785 97.6242 255.0129 0012893 359.4147 0.7054 14.88827486728837
AAUSAT2
1 32788U 08021F 21280.48069285 .00001030 00000-0 97175-4 0 9991
2 32788 97.5137 270.4991 0009941 252.3732 107.6404 14.95811702730607
DO-64
1 32789U 08021G 21280.66144443 .00003060 00000-0 19420-3 0 9993
2 32789 97.3674 311.6913 0013218 114.1484 246.1129 15.09534517733850
CO-66
1 32791U 08021J 21280.40116156 .00000805 00000-0 85553-4 0 9993
2 32791 97.5828 260.7709 0012087 319.3730 40.6587 14.91559094729463
RS-30
1 32953U 08025A 21280.74325189 .00000021 00000-0 80971-4 0 9991
2 32953 82.5076 341.1035 0020653 93.2127 267.1315 12.43104862606939
PRISM
1 33493U 09002B 21280.89715811 .00001250 00000-0 11146-3 0 9990
2 33493 98.2014 248.9502 0013873 276.8305 83.1337 14.97924169691161
NOAA-19
1 33591U 09005A 21280.89698149 .00000026 00000-0 39093-4 0 9998
2 33591 99.1781 304.3609 0014069 173.3614 186.7745 14.12499272652796
SRMSAT
1 37841U 11058D 21280.52934328 .00000326 00000-0 34013-4 0 9993
2 37841 19.9733 343.6816 0012048 84.8077 303.4370 14.10706128515705
HRBE
1 37855U 11061F 21280.55533056 .00004067 00000-0 19835-3 0 9998
2 37855 101.7213 262.1892 0165264 97.0630 264.9408 15.08252893543079
RS-40
1 38735U 12041C 21280.51223432 .00000021 00000-0 79546-4 0 9997
2 38735 82.4752 63.2099 0016888 199.4411 160.6026 12.42583432417103
ZACUBE-1
1 39417U 13066B 21280.76531690 .00000488 00000-0 66660-4 0 9998
2 39417 97.6051 259.3443 0059160 151.6151 208.8307 14.81614732425708
Delfi-N3xt
1 39428U 13066N 21280.74325555 .00001294 00000-0 21010-3 0 9994
2 39428 97.7878 221.5463 0119901 6.0100 354.2511 14.68152533421629
GOMX-1
1 39430U 13066Q 21280.74987269 .00000361 00000-0 73279-4 0 9992
2 39430 97.8098 197.3614 0151440 120.8682 240.7525 14.59685981419426
LO-74
1 39440U 13066AA 21280.49042862 .00000454 00000-0 69457-4 0 9992
2 39440 97.6898 244.3841 0078415 231.4757 127.9406 14.76339834422958
AO-73
1 39444U 13066AE 21280.68002810 .00000625 00000-0 81758-4 0 9994
2 39444 97.5950 261.6456 0058409 141.7264 218.8119 14.82541777424659
SPROUT
1 39770U 14029E 21280.73419756 .00001897 00000-0 20898-3 0 9992
2 39770 97.9245 31.9809 0008362 191.8476 168.2539 14.88713722400044
DTUSAT-2
1 40030U 14033W 21280.77749877 .00000653 00000-0 75182-4 0 9998
2 40030 97.9170 208.0068 0012153 158.5942 201.5785 14.89104856396543
EO-80
1 40032U 14033Y 21280.74380681 .00000741 00000-0 84557-4 0 9995
2 40032 97.9177 207.9817 0012061 159.7577 200.4121 14.89065579396525
HODOYOSHI-1
1 40299U 14070B 21280.78820491 .00001760 00000-0 73239-4 0 9990
2 40299 97.2771 351.2886 0011655 317.3858 181.4810 15.25004631384538
FIREBIRD FU3
1 40377U 15003B 21280.51492899 .00008964 00000-0 31563-3 0 9998
2 40377 99.1131 85.4044 0115281 156.8017 203.8478 15.23465158369851
FIREBIRD FU4
1 40378U 15003C 21280.42177526 .00009449 00000-0 33181-3 0 9993
2 40378 99.1136 85.4513 0115318 156.9088 203.7386 15.23523039369836
GRIFEX
1 40379U 15003D 21280.36620962 .00006885 00000-0 27230-3 0 9993
2 40379 99.1111 73.7119 0126268 192.1641 167.6532 15.18781836369178
NO-84
1 40654U 15025D 21279.47853298 .00103834 14191-4 48046-3 0 1793
2 40654 54.9730 233.9159 0056161 8.1548 352.0395 15.81030886 24548
XW-2A
1 40903U 15049E 21280.81875741 .00006500 00000-0 13340-3 0 9994
2 40903 97.2245 334.9473 0010914 331.8036 139.8167 15.46311154340158
XW-2C
1 40906U 15049H 21280.70834403 .00001648 00000-0 86553-4 0 9990
2 40906 97.4901 281.7003 0015002 152.1839 318.6091 15.17023902334580
XW-2D
1 40907U 15049J 21280.81193667 .00002152 00000-0 11084-3 0 9990
2 40907 97.4895 281.6381 0014689 147.8654 336.1476 15.17384974334634
LILACSAT-2
1 40908U 15049K 21280.80645895 .00001228 00000-0 69911-4 0 9991
2 40908 97.5098 279.3109 0015907 165.2562 318.6579 15.14608326334231
XW-2E
1 40909U 15049L 21280.70770976 .00002967 00000-0 14062-3 0 9997
2 40909 97.4696 285.6877 0014138 133.7596 338.6844 15.20008977334981
XW-2F
1 40910U 15049M 21280.81507123 .00003111 00000-0 14935-3 0 9994
2 40910 97.4748 284.8804 0015384 134.1811 345.1130 15.19508333334789
XW-2B
1 40911U 15049N 21280.82083512 .00002020 00000-0 10453-3 0 9996
2 40911 97.4889 282.3127 0014453 148.8025 334.2410 15.17296915334522
DCBB
1 40912U 15049P 21280.82126333 .00003501 00000-0 15546-3 0 9999
2 40912 97.4457 289.2713 0015727 106.9476 17.7816 15.22110104335289
TW-1A
1 40928U 15051D 21280.86290571 .00010598 00000-0 20827-3 0 9991
2 40928 97.0708 303.1294 0007444 232.4109 252.1426 15.47438909339061
IO-86
1 40931U 15052B 21280.38929112 .00000702 00000-0 87088-5 0 9993
2 40931 5.9922 174.0851 0012112 187.7594 172.2416 14.76692669325874
ATHENOXAT-1
1 41168U 15077C 21280.33354640 .00005157 00000-0 22243-3 0 9995
2 41168 14.9797 158.1552 0012432 292.2157 215.3598 15.16268390321781
ChubuSat-2
1 41338U 16012B 21280.15305565 .00000786 00000-0 53867-4 0 9996
2 41338 31.0020 195.5732 0013638 161.4570 198.6564 15.00629853309396
ChubuSat-3
1 41339U 16012C 21280.83047166 .00000806 00000-0 55277-4 0 9992
2 41339 31.0109 188.3807 0013208 175.7580 184.3167 15.00770943309499
Horyu-4
1 41340U 16012D 21280.40005657 .00001205 00000-0 82955-4 0 9993
2 41340 31.0041 173.2732 0013855 205.5432 154.4520 15.02057851309637
e-st@r-II
1 41459U 16025D 21280.85716126 .00003690 00000-0 17860-3 0 9999
2 41459 98.1574 63.9131 0158884 44.0676 317.3087 15.08808585299369
AAUSAT4
1 41460U 16025E 21280.38178797 .00005142 00000-0 23443-3 0 9993
2 41460 98.1555 67.8710 0144762 27.5687 333.3037 15.12206745299621
LO-87
1 41557U 16033B 21280.85147105 .00004405 00000-0 15371-3 0 9992
2 41557 97.3941 14.2012 0012464 189.6348 311.2402 15.30070273298711
NuSat2
1 41558U 16033C 21280.83132604 .00004612 00000-0 15072-3 0 9997
2 41558 97.4065 18.5345 0011490 181.6079 331.3594 15.32183837298928
Lapan A3
1 41603U 16040E 21280.83392056 .00000533 00000-0 27688-4 0 9990
2 41603 97.2447 323.4294 0012639 335.1882 142.3645 15.20119567293654
Pratham
1 41783U 16059A 21280.68663693 .00000135 00000-0 35186-4 0 9990
2 41783 97.9523 326.8782 0032231 251.1501 108.6205 14.63172599268669
TY-1
1 41844U 16066D 21280.85823212 .00002457 00000-0 97596-4 0 9992
2 41844 97.3986 289.9357 0016042 99.6312 22.4971 15.26167490273043
CAS-2T
1 41847U 16066G 21280.41354231 .00000253 00000-0 49217-4 0 9996
2 41847 98.5892 339.9427 0364027 246.0653 110.2013 14.38246444257970
EO-88
1 42017U 17008BX 21280.76836205 .00005026 00000-0 18139-3 0 9998
2 42017 97.3051 346.3408 0007419 76.0694 284.1371 15.28928776258413
CAS-4B
1 42759U 17034B 21280.77197917 .00001243 00000-0 87535-4 0 9995
2 42759 43.0185 283.5136 0007059 152.8126 194.4131 15.10421211238121
CAS-4A
1 42761U 17034D 21280.75677083 .00001148 00000-0 81686-4 0 9998
2 42761 43.0187 282.5694 0007486 154.1330 194.9603 15.10507333238129
NIUSat
1 42766U 17036B 21280.67055940 .00002902 00000-0 12526-3 0 9993
2 42766 97.2385 322.7063 0016145 135.6970 224.5563 15.23172381238296
Aalto 1
1 42775U 17036L 21280.51850652 .00002358 00000-0 10277-3 0 9995
2 42775 97.2352 322.7467 0014685 134.9847 225.2583 15.23039226238256
URSA MAIOR
1 42776U 17036M 21280.69736892 .00002567 00000-0 11066-3 0 9993
2 42776 97.2365 323.4522 0014490 133.6851 226.5590 15.23343070238309
Max Valier Sat
1 42778U 17036P 21280.66067919 .00002742 00000-0 11567-3 0 9990
2 42778 97.2432 325.5490 0013065 135.0340 225.1958 15.24038311238379
